Year,Month,Day,Hour,Minute,Value (Times are PST for temperature in C)
2017,12,14,00,00,2.20
2017,12,14,00,01,2.20
2017,12,14,00,02,2.20
2017,12,14,00,03,2.20
2017,12,14,00,04,2.20
2017,12,14,00,05,2.20
2017,12,14,00,06,2.10
2017,12,14,00,07,2.10
2017,12,14,00,08,2.10
2017,12,14,00,09,2.10
2017,12,14,00,10,2.10
2017,12,14,00,11,2.10
2017,12,14,00,12,2.10
2017,12,14,00,13,2.10
2017,12,14,00,14,2.00
2017,12,14,00,15,2.00
2017,12,14,00,16,2.00
2017,12,14,00,17,2.00
2017,12,14,00,18,2.00
2017,12,14,00,19,2.00
2017,12,14,00,20,2.00
2017,12,14,00,21,2.00
2017,12,14,00,22,2.00
2017,12,14,00,23,2.00
2017,12,14,00,24,2.00
2017,12,14,00,25,2.00
2017,12,14,00,26,2.00
2017,12,14,00,27,2.00
2017,12,14,00,28,2.00
2017,12,14,00,29,2.00
2017,12,14,00,30,2.00
2017,12,14,00,31,2.00
2017,12,14,00,32,1.90
2017,12,14,00,33,1.90
2017,12,14,00,34,1.90
2017,12,14,00,35,1.90
2017,12,14,00,36,1.90
2017,12,14,00,37,1.90
2017,12,14,00,38,1.90
2017,12,14,00,39,1.90
2017,12,14,00,40,1.90
2017,12,14,00,41,1.90
2017,12,14,00,42,1.90
2017,12,14,00,43,1.90
2017,12,14,00,44,1.90
2017,12,14,00,45,1.90
2017,12,14,00,46,1.80
2017,12,14,00,47,1.80
2017,12,14,00,48,1.80
2017,12,14,00,49,1.80
2017,12,14,00,50,1.80
2017,12,14,00,51,1.80
2017,12,14,00,52,1.80
2017,12,14,00,53,1.90
2017,12,14,00,54,1.90
2017,12,14,00,55,1.90
2017,12,14,00,56,1.90
2017,12,14,00,57,1.90
2017,12,14,00,58,1.90
2017,12,14,00,59,1.90
2017,12,14,01,00,1.90
2017,12,14,01,01,1.90
2017,12,14,01,02,1.80
2017,12,14,01,03,1.80
2017,12,14,01,04,1.80
2017,12,14,01,05,1.80
2017,12,14,01,06,1.80
2017,12,14,01,07,1.80
2017,12,14,01,08,1.70
2017,12,14,01,09,1.70
2017,12,14,01,10,1.70
2017,12,14,01,11,1.70
2017,12,14,01,12,1.70
2017,12,14,01,13,1.70
2017,12,14,01,14,1.70
2017,12,14,01,15,1.70
2017,12,14,01,16,1.70
2017,12,14,01,17,1.70
2017,12,14,01,18,1.70
2017,12,14,01,19,1.70
2017,12,14,01,20,1.70
2017,12,14,01,21,1.70
2017,12,14,01,22,1.70
2017,12,14,01,23,1.70
2017,12,14,01,24,1.70
2017,12,14,01,25,1.70
2017,12,14,01,26,1.80
2017,12,14,01,27,1.80
2017,12,14,01,28,1.80
2017,12,14,01,29,1.80
2017,12,14,01,30,1.80
2017,12,14,01,31,1.80
2017,12,14,01,32,1.80
2017,12,14,01,33,1.80
2017,12,14,01,34,1.80
2017,12,14,01,35,1.90
2017,12,14,01,36,1.90
2017,12,14,01,37,1.90
2017,12,14,01,38,1.90
2017,12,14,01,39,1.90
2017,12,14,01,40,1.90
2017,12,14,01,41,1.90
2017,12,14,01,42,1.90
2017,12,14,01,43,1.80
2017,12,14,01,44,1.80
2017,12,14,01,45,1.80
2017,12,14,01,46,1.80
2017,12,14,01,47,1.80
2017,12,14,01,48,1.80
2017,12,14,01,49,1.80
2017,12,14,01,50,1.80
2017,12,14,01,51,1.80
2017,12,14,01,52,1.80
2017,12,14,01,53,1.80
2017,12,14,01,54,1.80
2017,12,14,01,55,1.80
2017,12,14,01,56,1.80
2017,12,14,01,57,1.70
2017,12,14,01,58,1.70
2017,12,14,01,59,1.70
2017,12,14,02,00,1.70
2017,12,14,02,01,1.70
2017,12,14,02,02,1.70
2017,12,14,02,03,1.70
2017,12,14,02,04,1.60
2017,12,14,02,05,1.60
2017,12,14,02,06,1.60
2017,12,14,02,07,1.70
2017,12,14,02,08,1.70
2017,12,14,02,09,1.70
2017,12,14,02,10,1.70
2017,12,14,02,11,1.70
2017,12,14,02,12,1.70
2017,12,14,02,13,1.70
2017,12,14,02,14,1.70
2017,12,14,02,15,1.70
2017,12,14,02,16,1.70
2017,12,14,02,17,1.70
2017,12,14,02,18,1.70
2017,12,14,02,19,1.70
2017,12,14,02,20,1.70
2017,12,14,02,21,1.70
2017,12,14,02,22,1.70
2017,12,14,02,23,1.70
2017,12,14,02,24,1.70
2017,12,14,02,25,1.70
2017,12,14,02,26,1.70
2017,12,14,02,27,1.80
2017,12,14,02,28,1.80
2017,12,14,02,29,1.80
2017,12,14,02,30,1.80
2017,12,14,02,31,1.80
2017,12,14,02,32,1.70
2017,12,14,02,33,1.70
2017,12,14,02,34,1.70
2017,12,14,02,35,1.70
2017,12,14,02,36,1.60
2017,12,14,02,37,1.60
2017,12,14,02,38,1.60
2017,12,14,02,39,1.60
2017,12,14,02,40,1.60
2017,12,14,02,41,1.60
2017,12,14,02,42,1.60
2017,12,14,02,43,1.60
2017,12,14,02,44,1.60
2017,12,14,02,45,1.60
2017,12,14,02,46,1.60
2017,12,14,02,47,1.60
2017,12,14,02,48,1.60
2017,12,14,02,49,1.50
2017,12,14,02,50,1.50
2017,12,14,02,51,1.50
2017,12,14,02,52,1.50
2017,12,14,02,53,1.50
2017,12,14,02,54,1.50
2017,12,14,02,55,1.60
2017,12,14,02,56,1.60
2017,12,14,02,57,1.60
2017,12,14,02,58,1.60
2017,12,14,02,59,1.60
2017,12,14,03,00,1.60
2017,12,14,03,01,1.60
2017,12,14,03,02,1.70
2017,12,14,03,03,1.70
2017,12,14,03,04,1.70
2017,12,14,03,05,1.70
2017,12,14,03,06,1.70
2017,12,14,03,07,1.70
2017,12,14,03,08,1.70
2017,12,14,03,09,1.70
2017,12,14,03,10,1.70
2017,12,14,03,11,1.70
2017,12,14,03,12,1.70
2017,12,14,03,13,1.70
2017,12,14,03,14,1.70
2017,12,14,03,15,1.70
2017,12,14,03,16,1.70
2017,12,14,03,17,1.70
2017,12,14,03,18,1.70
2017,12,14,03,19,1.70
2017,12,14,03,20,1.70
2017,12,14,03,21,1.80
2017,12,14,03,22,1.80
2017,12,14,03,23,1.80
2017,12,14,03,24,1.80
2017,12,14,03,25,1.80
2017,12,14,03,26,1.80
2017,12,14,03,27,1.80
2017,12,14,03,28,1.80
2017,12,14,03,29,1.80
2017,12,14,03,30,1.90
2017,12,14,03,31,1.90
2017,12,14,03,32,1.90
2017,12,14,03,33,1.90
2017,12,14,03,34,1.90
2017,12,14,03,35,2.00
2017,12,14,03,36,2.10
2017,12,14,03,37,2.20
2017,12,14,03,38,2.20
2017,12,14,03,39,2.20
2017,12,14,03,40,2.20
2017,12,14,03,41,2.20
2017,12,14,03,42,2.20
2017,12,14,03,43,2.20
2017,12,14,03,44,2.10
2017,12,14,03,45,2.10
2017,12,14,03,46,2.10
2017,12,14,03,47,2.00
2017,12,14,03,48,2.00
2017,12,14,03,49,2.00
2017,12,14,03,50,2.00
2017,12,14,03,51,2.00
2017,12,14,03,52,2.00
2017,12,14,03,53,2.00
2017,12,14,03,54,2.00
2017,12,14,03,55,2.00
2017,12,14,03,56,2.00
2017,12,14,03,57,2.00
2017,12,14,03,58,2.00
2017,12,14,03,59,2.00
2017,12,14,04,00,1.90
2017,12,14,04,01,1.90
2017,12,14,04,02,1.90
2017,12,14,04,03,1.90
2017,12,14,04,04,1.80
2017,12,14,04,05,1.80
2017,12,14,04,06,1.80
2017,12,14,04,07,1.80
2017,12,14,04,08,1.80
2017,12,14,04,09,1.80
2017,12,14,04,10,1.80
2017,12,14,04,11,1.80
2017,12,14,04,12,1.80
2017,12,14,04,13,1.80
2017,12,14,04,14,1.80
2017,12,14,04,15,1.80
2017,12,14,04,16,1.80
2017,12,14,04,17,1.80
2017,12,14,04,18,1.80
2017,12,14,04,19,1.80
2017,12,14,04,20,1.80
2017,12,14,04,21,1.80
2017,12,14,04,22,1.80
2017,12,14,04,23,1.80
2017,12,14,04,24,1.80
2017,12,14,04,25,1.70
2017,12,14,04,26,1.70
2017,12,14,04,27,1.70
2017,12,14,04,28,1.70
2017,12,14,04,29,1.70
2017,12,14,04,30,1.70
2017,12,14,04,31,1.70
2017,12,14,04,32,1.80
2017,12,14,04,33,1.80
2017,12,14,04,34,1.80
2017,12,14,04,35,1.80
2017,12,14,04,36,1.80
2017,12,14,04,37,1.80
2017,12,14,04,38,1.80
2017,12,14,04,39,1.80
2017,12,14,04,40,1.70
2017,12,14,04,41,1.70
2017,12,14,04,42,1.70
2017,12,14,04,43,1.70
2017,12,14,04,44,1.70
2017,12,14,04,45,1.70
2017,12,14,04,46,1.60
2017,12,14,04,47,1.60
2017,12,14,04,48,1.60
2017,12,14,04,49,1.60
2017,12,14,04,50,1.60
2017,12,14,04,51,1.60
2017,12,14,04,52,1.60
2017,12,14,04,53,1.60
2017,12,14,04,54,1.60
2017,12,14,04,55,1.60
2017,12,14,04,56,1.70
2017,12,14,04,57,1.80
2017,12,14,04,58,1.80
2017,12,14,04,59,1.90
2017,12,14,05,00,2.00
2017,12,14,05,01,2.00
2017,12,14,05,02,2.00
2017,12,14,05,03,2.00
2017,12,14,05,04,2.00
2017,12,14,05,05,2.00
2017,12,14,05,06,2.00
2017,12,14,05,07,2.00
2017,12,14,05,08,2.00
2017,12,14,05,09,2.00
2017,12,14,05,10,2.00
2017,12,14,05,11,2.00
2017,12,14,05,12,1.90
2017,12,14,05,13,1.80
2017,12,14,05,14,1.80
2017,12,14,05,15,1.80
2017,12,14,05,16,1.80
2017,12,14,05,17,1.80
2017,12,14,05,18,1.80
2017,12,14,05,19,1.80
2017,12,14,05,20,1.80
2017,12,14,05,21,1.80
2017,12,14,05,22,1.80
2017,12,14,05,23,1.80
2017,12,14,05,24,1.80
2017,12,14,05,25,1.80
2017,12,14,05,26,1.80
2017,12,14,05,27,1.80
2017,12,14,05,28,1.80
2017,12,14,05,29,1.70
2017,12,14,05,30,1.70
2017,12,14,05,31,1.70
2017,12,14,05,32,1.70
2017,12,14,05,33,1.70
2017,12,14,05,34,1.80
2017,12,14,05,35,1.80
2017,12,14,05,36,1.80
2017,12,14,05,37,1.80
2017,12,14,05,38,1.80
2017,12,14,05,39,1.70
2017,12,14,05,40,1.70
2017,12,14,05,41,1.70
2017,12,14,05,42,1.70
2017,12,14,05,43,1.70
2017,12,14,05,44,1.70
2017,12,14,05,45,1.70
2017,12,14,05,46,1.70
2017,12,14,05,47,1.70
2017,12,14,05,48,1.60
2017,12,14,05,49,1.60
2017,12,14,05,50,1.60
2017,12,14,05,51,1.60
2017,12,14,05,52,1.60
2017,12,14,05,53,1.50
2017,12,14,05,54,1.50
2017,12,14,05,55,1.50
2017,12,14,05,56,1.40
2017,12,14,05,57,1.40
2017,12,14,05,58,1.40
2017,12,14,05,59,1.40
2017,12,14,06,00,1.40
2017,12,14,06,01,1.30
2017,12,14,06,02,1.30
2017,12,14,06,03,1.30
2017,12,14,06,04,1.30
2017,12,14,06,05,1.30
2017,12,14,06,06,1.30
2017,12,14,06,07,1.30
2017,12,14,06,08,1.30
2017,12,14,06,09,1.30
2017,12,14,06,10,1.30
2017,12,14,06,11,1.30
2017,12,14,06,12,1.30
2017,12,14,06,13,1.30
2017,12,14,06,14,1.30
2017,12,14,06,15,1.30
2017,12,14,06,16,1.30
2017,12,14,06,17,1.30
2017,12,14,06,18,1.30
2017,12,14,06,19,1.30
2017,12,14,06,20,1.20
2017,12,14,06,21,1.20
2017,12,14,06,22,1.20
2017,12,14,06,23,1.30
2017,12,14,06,24,1.30
2017,12,14,06,25,1.30
2017,12,14,06,26,1.30
2017,12,14,06,27,1.30
2017,12,14,06,28,1.30
2017,12,14,06,29,1.30
2017,12,14,06,30,1.30
2017,12,14,06,31,1.30
2017,12,14,06,32,1.30
2017,12,14,06,33,1.30
2017,12,14,06,34,1.30
2017,12,14,06,35,1.30
2017,12,14,06,36,1.30
2017,12,14,06,37,1.30
2017,12,14,06,38,1.30
2017,12,14,06,39,1.30
2017,12,14,06,40,1.30
2017,12,14,06,41,1.30
2017,12,14,06,42,1.30
2017,12,14,06,43,1.30
2017,12,14,06,44,1.30
2017,12,14,06,45,1.30
2017,12,14,06,46,1.30
2017,12,14,06,47,1.30
2017,12,14,06,48,1.30
2017,12,14,06,49,1.30
2017,12,14,06,50,1.30
2017,12,14,06,51,1.40
2017,12,14,06,52,1.40
2017,12,14,06,53,1.40
2017,12,14,06,54,1.40
2017,12,14,06,55,1.50
2017,12,14,06,56,1.50
2017,12,14,06,57,1.50
2017,12,14,06,58,1.50
2017,12,14,06,59,1.40
2017,12,14,07,00,1.40
2017,12,14,07,01,1.40
2017,12,14,07,02,1.40
2017,12,14,07,03,1.40
2017,12,14,07,04,1.30
2017,12,14,07,05,1.30
2017,12,14,07,06,1.30
2017,12,14,07,07,1.30
2017,12,14,07,08,1.30
2017,12,14,07,09,1.30
2017,12,14,07,10,1.30
2017,12,14,07,11,1.30
2017,12,14,07,12,1.30
2017,12,14,07,13,1.30
2017,12,14,07,14,1.30
2017,12,14,07,15,1.30
2017,12,14,07,16,1.30
2017,12,14,07,17,1.30
2017,12,14,07,18,1.30
2017,12,14,07,19,1.30
2017,12,14,07,20,1.30
2017,12,14,07,21,1.30
2017,12,14,07,22,1.30
2017,12,14,07,23,1.30
2017,12,14,07,24,1.30
2017,12,14,07,25,1.30
2017,12,14,07,26,1.20
2017,12,14,07,27,1.20
2017,12,14,07,28,1.20
2017,12,14,07,29,1.20
2017,12,14,07,30,1.20
2017,12,14,07,31,1.20
2017,12,14,07,32,1.20
2017,12,14,07,33,1.20
2017,12,14,07,34,1.30
2017,12,14,07,35,1.30
2017,12,14,07,36,1.30
2017,12,14,07,37,1.20
2017,12,14,07,38,1.20
2017,12,14,07,39,1.20
2017,12,14,07,40,1.20
2017,12,14,07,41,1.20
2017,12,14,07,42,1.20
2017,12,14,07,43,1.20
2017,12,14,07,44,1.20
2017,12,14,07,45,1.20
2017,12,14,07,46,1.20
2017,12,14,07,47,1.20
2017,12,14,07,48,1.20
2017,12,14,07,49,1.20
2017,12,14,07,50,1.20
2017,12,14,07,51,1.20
2017,12,14,07,52,1.20
2017,12,14,07,53,1.20
2017,12,14,07,54,1.10
2017,12,14,07,55,1.10
2017,12,14,07,56,1.10
2017,12,14,07,57,1.10
2017,12,14,07,58,1.00
2017,12,14,07,59,1.00
2017,12,14,08,00,1.00
2017,12,14,08,01,1.00
2017,12,14,08,02,1.00
2017,12,14,08,03,1.00
2017,12,14,08,04,0.90
2017,12,14,08,05,0.90
2017,12,14,08,06,0.90
2017,12,14,08,07,0.90
2017,12,14,08,08,0.90
2017,12,14,08,09,0.90
2017,12,14,08,10,0.90
2017,12,14,08,11,0.90
2017,12,14,08,12,0.90
2017,12,14,08,13,0.90
2017,12,14,08,14,1.00
2017,12,14,08,15,1.00
2017,12,14,08,16,1.00
2017,12,14,08,17,1.00
2017,12,14,08,18,1.10
2017,12,14,08,19,1.10
2017,12,14,08,20,1.00
2017,12,14,08,21,1.00
2017,12,14,08,22,1.00
2017,12,14,08,23,1.00
2017,12,14,08,24,1.00
2017,12,14,08,25,1.00
2017,12,14,08,26,0.90
2017,12,14,08,27,0.90
2017,12,14,08,28,0.80
2017,12,14,08,29,0.80
2017,12,14,08,30,0.80
2017,12,14,08,31,0.80
2017,12,14,08,32,0.80
2017,12,14,08,33,0.80
2017,12,14,08,34,0.90
2017,12,14,08,35,0.90
2017,12,14,08,36,0.90
2017,12,14,08,37,0.90
2017,12,14,08,38,1.00
2017,12,14,08,39,1.00
2017,12,14,08,40,1.00
2017,12,14,08,41,1.00
2017,12,14,08,42,1.00
2017,12,14,08,43,1.00
2017,12,14,08,44,1.00
2017,12,14,08,45,1.00
2017,12,14,08,46,1.00
2017,12,14,08,47,1.00
2017,12,14,08,48,1.00
2017,12,14,08,49,1.10
2017,12,14,08,50,1.10
2017,12,14,08,51,1.10
2017,12,14,08,52,1.10
2017,12,14,08,53,1.20
2017,12,14,08,54,1.20
2017,12,14,08,55,1.20
2017,12,14,08,56,1.20
2017,12,14,08,57,1.20
2017,12,14,08,58,1.30
2017,12,14,08,59,1.30
2017,12,14,09,00,1.30
2017,12,14,09,01,1.30
2017,12,14,09,02,1.30
2017,12,14,09,03,1.30
2017,12,14,09,04,1.30
2017,12,14,09,05,1.30
2017,12,14,09,06,1.30
2017,12,14,09,07,1.30
2017,12,14,09,08,1.30
2017,12,14,09,09,1.30
2017,12,14,09,10,1.30
2017,12,14,09,11,1.30
2017,12,14,09,12,1.30
2017,12,14,09,13,1.30
2017,12,14,09,14,1.40
2017,12,14,09,15,1.40
2017,12,14,09,16,1.40
2017,12,14,09,17,1.50
2017,12,14,09,18,1.60
2017,12,14,09,19,1.60
2017,12,14,09,20,1.70
2017,12,14,09,21,1.70
2017,12,14,09,22,1.80
2017,12,14,09,23,1.80
2017,12,14,09,24,1.90
2017,12,14,09,25,1.90
2017,12,14,09,26,2.00
2017,12,14,09,27,2.10
2017,12,14,09,28,2.10
2017,12,14,09,29,2.20
2017,12,14,09,30,2.20
2017,12,14,09,31,2.20
2017,12,14,09,32,2.20
2017,12,14,09,33,2.20
2017,12,14,09,34,2.30
2017,12,14,09,35,2.40
2017,12,14,09,36,2.50
2017,12,14,09,37,2.60
2017,12,14,09,38,2.70
2017,12,14,09,39,2.80
2017,12,14,09,40,2.90
2017,12,14,09,41,3.10
2017,12,14,09,42,3.30
2017,12,14,09,43,3.50
2017,12,14,09,44,3.60
2017,12,14,09,45,3.70
2017,12,14,09,46,3.80
2017,12,14,09,47,3.90
2017,12,14,09,48,4.00
2017,12,14,09,49,4.00
2017,12,14,09,50,4.10
2017,12,14,09,51,4.10
2017,12,14,09,52,4.20
2017,12,14,09,53,4.20
2017,12,14,09,54,4.30
2017,12,14,09,55,4.40
2017,12,14,09,56,4.50
2017,12,14,09,57,4.60
2017,12,14,09,58,4.60
2017,12,14,09,59,4.70
2017,12,14,10,00,4.80
2017,12,14,10,01,4.80
2017,12,14,10,02,4.90
2017,12,14,10,03,5.00
2017,12,14,10,04,5.10
2017,12,14,10,05,5.10
2017,12,14,10,06,5.20
2017,12,14,10,07,5.30
2017,12,14,10,08,5.40
2017,12,14,10,09,5.50
2017,12,14,10,10,5.60
2017,12,14,10,11,5.70
2017,12,14,10,12,5.80
2017,12,14,10,13,5.90
2017,12,14,10,14,5.90
2017,12,14,10,15,6.00
2017,12,14,10,16,6.00
2017,12,14,10,17,6.00
2017,12,14,10,18,6.10
2017,12,14,10,19,6.10
2017,12,14,10,20,6.20
2017,12,14,10,21,6.20
2017,12,14,10,22,6.20
2017,12,14,10,23,6.20
2017,12,14,10,24,6.20
2017,12,14,10,25,6.30
2017,12,14,10,26,6.30
2017,12,14,10,27,6.30
2017,12,14,10,28,6.40
2017,12,14,10,29,6.40
2017,12,14,10,30,6.40
2017,12,14,10,31,6.40
2017,12,14,10,32,6.40
2017,12,14,10,33,6.40
2017,12,14,10,34,6.40
2017,12,14,10,35,6.40
2017,12,14,10,36,6.40
2017,12,14,10,37,6.40
2017,12,14,10,38,6.40
2017,12,14,10,39,6.50
2017,12,14,10,40,6.60
2017,12,14,10,41,6.60
2017,12,14,10,42,6.60
2017,12,14,10,43,6.60
2017,12,14,10,44,6.60
2017,12,14,10,45,6.70
2017,12,14,10,46,6.70
2017,12,14,10,47,6.80
2017,12,14,10,48,6.80
2017,12,14,10,49,6.90
2017,12,14,10,50,7.00
2017,12,14,10,51,7.10
2017,12,14,10,52,7.10
2017,12,14,10,53,7.10
2017,12,14,10,54,7.20
2017,12,14,10,55,7.30
2017,12,14,10,56,7.30
2017,12,14,10,57,7.30
2017,12,14,10,58,7.30
2017,12,14,10,59,7.40
2017,12,14,11,00,7.50
2017,12,14,11,01,7.50
2017,12,14,11,02,7.60
2017,12,14,11,03,7.60
2017,12,14,11,04,7.70
2017,12,14,11,05,7.80
2017,12,14,11,06,7.80
2017,12,14,11,07,7.80
2017,12,14,11,08,7.80
2017,12,14,11,09,7.80
2017,12,14,11,10,7.90
2017,12,14,11,11,7.90
2017,12,14,11,12,8.00
2017,12,14,11,13,8.00
2017,12,14,11,14,8.10
2017,12,14,11,15,8.20
2017,12,14,11,16,8.20
2017,12,14,11,17,8.20
2017,12,14,11,18,8.30
2017,12,14,11,19,8.30
2017,12,14,11,20,8.40
2017,12,14,11,21,8.50
2017,12,14,11,22,8.50
2017,12,14,11,23,8.60
2017,12,14,11,24,8.70
2017,12,14,11,25,8.70
2017,12,14,11,26,8.70
2017,12,14,11,27,8.80
2017,12,14,11,28,8.80
2017,12,14,11,29,8.90
2017,12,14,11,30,8.90
2017,12,14,11,31,9.00
2017,12,14,11,32,9.00
2017,12,14,11,33,9.10
2017,12,14,11,34,9.10
2017,12,14,11,35,9.20
2017,12,14,11,36,9.20
2017,12,14,11,37,9.20
2017,12,14,11,38,9.20
2017,12,14,11,39,9.20
2017,12,14,11,40,9.20
2017,12,14,11,41,9.30
2017,12,14,11,42,9.30
2017,12,14,11,43,9.30
2017,12,14,11,44,9.40
2017,12,14,11,45,9.40
2017,12,14,11,46,9.40
2017,12,14,11,47,9.40
2017,12,14,11,48,9.50
2017,12,14,11,49,9.50
2017,12,14,11,50,9.50
2017,12,14,11,51,9.50
2017,12,14,11,52,9.50
2017,12,14,11,53,9.60
2017,12,14,11,54,9.60
2017,12,14,11,55,9.50
2017,12,14,11,56,9.50
2017,12,14,11,57,9.40
2017,12,14,11,58,9.50
2017,12,14,11,59,9.50
2017,12,14,12,00,9.50
2017,12,14,12,01,9.50
2017,12,14,12,02,9.50
2017,12,14,12,03,9.50
2017,12,14,12,04,9.40
2017,12,14,12,05,9.40
2017,12,14,12,06,9.40
2017,12,14,12,07,9.50
2017,12,14,12,08,9.50
2017,12,14,12,09,9.50
2017,12,14,12,10,9.50
2017,12,14,12,11,9.50
2017,12,14,12,12,9.40
2017,12,14,12,13,9.40
2017,12,14,12,14,9.50
2017,12,14,12,15,9.50
2017,12,14,12,16,9.50
2017,12,14,12,17,9.50
2017,12,14,12,18,9.50
2017,12,14,12,19,9.50
2017,12,14,12,20,9.50
2017,12,14,12,21,9.60
2017,12,14,12,22,9.60
2017,12,14,12,23,9.60
2017,12,14,12,24,9.60
2017,12,14,12,25,9.60
2017,12,14,12,26,9.60
2017,12,14,12,27,9.70
2017,12,14,12,28,9.70
2017,12,14,12,29,9.60
2017,12,14,12,30,9.60
2017,12,14,12,31,9.60
2017,12,14,12,32,9.60
2017,12,14,12,33,9.60
2017,12,14,12,34,9.60
2017,12,14,12,35,9.60
2017,12,14,12,36,9.60
2017,12,14,12,37,9.60
2017,12,14,12,38,9.60
2017,12,14,12,39,9.60
2017,12,14,12,40,9.60
2017,12,14,12,41,9.60
2017,12,14,12,42,9.60
2017,12,14,12,43,9.60
2017,12,14,12,44,9.70
2017,12,14,12,45,9.70
2017,12,14,12,46,9.70
2017,12,14,12,47,9.70
2017,12,14,12,48,9.80
2017,12,14,12,49,9.80
2017,12,14,12,50,9.90
2017,12,14,12,51,9.90
2017,12,14,12,52,9.90
2017,12,14,12,53,9.90
2017,12,14,12,54,9.90
2017,12,14,12,55,9.90
2017,12,14,12,56,9.90
2017,12,14,12,57,10.00
2017,12,14,12,58,10.10
2017,12,14,12,59,10.10
2017,12,14,13,00,10.10
2017,12,14,13,01,10.10
2017,12,14,13,02,10.10
2017,12,14,13,03,10.10
2017,12,14,13,04,10.10
2017,12,14,13,05,10.10
2017,12,14,13,06,10.10
2017,12,14,13,07,10.10
2017,12,14,13,08,10.10
2017,12,14,13,09,10.10
2017,12,14,13,10,10.10
2017,12,14,13,11,10.10
2017,12,14,13,12,10.20
2017,12,14,13,13,10.20
2017,12,14,13,14,10.20
2017,12,14,13,15,10.20
2017,12,14,13,16,10.20
2017,12,14,13,17,10.20
2017,12,14,13,18,10.20
2017,12,14,13,19,10.20
2017,12,14,13,20,10.20
2017,12,14,13,21,10.20
2017,12,14,13,22,10.30
2017,12,14,13,23,10.20
2017,12,14,13,24,10.20
2017,12,14,13,25,10.20
2017,12,14,13,26,10.20
2017,12,14,13,27,10.10
2017,12,14,13,28,10.10
2017,12,14,13,29,10.10
2017,12,14,13,30,10.10
2017,12,14,13,31,10.10
2017,12,14,13,32,10.10
2017,12,14,13,33,10.00
2017,12,14,13,34,9.90
2017,12,14,13,35,9.90
2017,12,14,13,36,9.90
2017,12,14,13,37,9.90
2017,12,14,13,38,9.90
2017,12,14,13,39,9.90
2017,12,14,13,40,9.90
2017,12,14,13,41,9.90
2017,12,14,13,42,9.90
2017,12,14,13,43,9.90
2017,12,14,13,44,9.90
2017,12,14,13,45,9.90
2017,12,14,13,46,10.00
2017,12,14,13,47,10.10
2017,12,14,13,48,10.10
2017,12,14,13,49,10.10
2017,12,14,13,50,10.10
2017,12,14,13,51,10.20
2017,12,14,13,52,10.20
2017,12,14,13,53,10.30
2017,12,14,13,54,10.40
2017,12,14,13,55,10.40
2017,12,14,13,56,10.40
2017,12,14,13,57,10.40
2017,12,14,13,58,10.40
2017,12,14,13,59,10.40
2017,12,14,14,00,10.40
2017,12,14,14,01,10.40
2017,12,14,14,02,10.50
2017,12,14,14,03,10.60
2017,12,14,14,04,10.60
2017,12,14,14,05,10.60
2017,12,14,14,06,10.60
2017,12,14,14,07,10.60
2017,12,14,14,08,10.60
2017,12,14,14,09,10.60
2017,12,14,14,10,10.60
2017,12,14,14,11,10.60
2017,12,14,14,12,10.60
2017,12,14,14,13,10.60
2017,12,14,14,14,10.60
2017,12,14,14,15,10.60
2017,12,14,14,16,10.60
2017,12,14,14,17,10.70
2017,12,14,14,18,10.70
2017,12,14,14,19,10.70
2017,12,14,14,20,10.70
2017,12,14,14,21,10.70
2017,12,14,14,22,10.70
2017,12,14,14,23,10.70
2017,12,14,14,24,10.70
2017,12,14,14,25,10.70
2017,12,14,14,26,10.70
2017,12,14,14,27,10.70
2017,12,14,14,28,10.70
2017,12,14,14,29,10.70
2017,12,14,14,30,10.70
2017,12,14,14,31,10.70
2017,12,14,14,32,10.70
2017,12,14,14,33,10.60
2017,12,14,14,34,10.70
2017,12,14,14,35,10.70
2017,12,14,14,36,10.70
2017,12,14,14,37,10.60
2017,12,14,14,38,10.60
2017,12,14,14,39,10.60
2017,12,14,14,40,10.50
2017,12,14,14,41,10.40
2017,12,14,14,42,10.40
2017,12,14,14,43,10.40
2017,12,14,14,44,10.40
2017,12,14,14,45,10.30
2017,12,14,14,46,10.30
2017,12,14,14,47,10.30
2017,12,14,14,48,10.20
2017,12,14,14,49,10.20
2017,12,14,14,50,10.20
2017,12,14,14,51,10.10
2017,12,14,14,52,10.10
2017,12,14,14,53,10.10
2017,12,14,14,54,10.10
2017,12,14,14,55,10.10
2017,12,14,14,56,10.10
2017,12,14,14,57,10.10
2017,12,14,14,58,10.10
2017,12,14,14,59,10.10
2017,12,14,15,00,10.00
2017,12,14,15,01,9.90
2017,12,14,15,02,9.90
2017,12,14,15,03,9.90
2017,12,14,15,04,9.90
2017,12,14,15,05,9.90
2017,12,14,15,06,9.90
2017,12,14,15,07,9.80
2017,12,14,15,08,9.80
2017,12,14,15,09,9.80
2017,12,14,15,10,9.70
2017,12,14,15,11,9.70
2017,12,14,15,12,9.70
2017,12,14,15,13,9.70
2017,12,14,15,14,9.70
2017,12,14,15,15,9.70
2017,12,14,15,16,9.70
2017,12,14,15,17,9.70
2017,12,14,15,18,9.70
2017,12,14,15,19,9.70
2017,12,14,15,20,9.70
2017,12,14,15,21,9.70
2017,12,14,15,22,9.70
2017,12,14,15,23,9.70
2017,12,14,15,24,9.70
2017,12,14,15,25,9.70
2017,12,14,15,26,9.70
2017,12,14,15,27,9.70
2017,12,14,15,28,9.70
2017,12,14,15,29,9.70
2017,12,14,15,30,9.70
2017,12,14,15,31,9.70
2017,12,14,15,32,9.70
2017,12,14,15,33,9.60
2017,12,14,15,34,9.60
2017,12,14,15,35,9.60
2017,12,14,15,36,9.60
2017,12,14,15,37,9.50
2017,12,14,15,38,9.50
2017,12,14,15,39,9.50
2017,12,14,15,40,9.40
2017,12,14,15,41,9.40
2017,12,14,15,42,9.30
2017,12,14,15,43,9.30
2017,12,14,15,44,9.30
2017,12,14,15,45,9.20
2017,12,14,15,46,9.20
2017,12,14,15,47,9.20
2017,12,14,15,48,9.20
2017,12,14,15,49,9.20
2017,12,14,15,50,9.20
2017,12,14,15,51,9.20
2017,12,14,15,52,9.20
2017,12,14,15,53,9.10
2017,12,14,15,54,9.10
2017,12,14,15,55,9.10
2017,12,14,15,56,9.10
2017,12,14,15,57,9.00
2017,12,14,15,58,9.00
2017,12,14,15,59,9.00
2017,12,14,16,00,8.90
2017,12,14,16,01,8.90
2017,12,14,16,02,8.90
2017,12,14,16,03,8.90
2017,12,14,16,04,8.80
2017,12,14,16,05,8.80
2017,12,14,16,06,8.80
2017,12,14,16,07,8.70
2017,12,14,16,08,8.70
2017,12,14,16,09,8.70
2017,12,14,16,10,8.70
2017,12,14,16,11,8.70
2017,12,14,16,12,8.70
2017,12,14,16,13,8.70
2017,12,14,16,14,8.60
2017,12,14,16,15,8.60
2017,12,14,16,16,8.50
2017,12,14,16,17,8.50
2017,12,14,16,18,8.50
2017,12,14,16,19,8.40
2017,12,14,16,20,8.40
2017,12,14,16,21,8.30
2017,12,14,16,22,8.30
2017,12,14,16,23,8.30
2017,12,14,16,24,8.20
2017,12,14,16,25,8.20
2017,12,14,16,26,8.20
2017,12,14,16,27,8.20
2017,12,14,16,28,8.10
2017,12,14,16,29,8.10
2017,12,14,16,30,8.00
2017,12,14,16,31,8.00
2017,12,14,16,32,7.90
2017,12,14,16,33,7.90
2017,12,14,16,34,7.80
2017,12,14,16,35,7.80
2017,12,14,16,36,7.70
2017,12,14,16,37,7.70
2017,12,14,16,38,7.60
2017,12,14,16,39,7.60
2017,12,14,16,40,7.50
2017,12,14,16,41,7.50
2017,12,14,16,42,7.40
2017,12,14,16,43,7.40
2017,12,14,16,44,7.30
2017,12,14,16,45,7.30
2017,12,14,16,46,7.30
2017,12,14,16,47,7.30
2017,12,14,16,48,7.20
2017,12,14,16,49,7.20
2017,12,14,16,50,7.10
2017,12,14,16,51,7.10
2017,12,14,16,52,7.10
2017,12,14,16,53,7.00
2017,12,14,16,54,7.00
2017,12,14,16,55,6.90
2017,12,14,16,56,6.90
2017,12,14,16,57,6.80
2017,12,14,16,58,6.80
2017,12,14,16,59,6.80
2017,12,14,17,00,6.80
2017,12,14,17,01,6.80
2017,12,14,17,02,6.80
2017,12,14,17,03,6.70
2017,12,14,17,04,6.70
2017,12,14,17,05,6.60
2017,12,14,17,06,6.60
2017,12,14,17,07,6.50
2017,12,14,17,08,6.40
2017,12,14,17,09,6.40
2017,12,14,17,10,6.30
2017,12,14,17,11,6.30
2017,12,14,17,12,6.20
2017,12,14,17,13,6.20
2017,12,14,17,14,6.20
2017,12,14,17,15,6.20
2017,12,14,17,16,6.10
2017,12,14,17,17,6.10
2017,12,14,17,18,6.00
2017,12,14,17,19,6.00
2017,12,14,17,20,6.00
2017,12,14,17,21,5.90
2017,12,14,17,22,5.90
2017,12,14,17,23,5.90
2017,12,14,17,24,5.80
2017,12,14,17,25,5.80
2017,12,14,17,26,5.70
2017,12,14,17,27,5.70
2017,12,14,17,28,5.70
2017,12,14,17,29,5.70
2017,12,14,17,30,5.70
2017,12,14,17,31,5.60
2017,12,14,17,32,5.60
2017,12,14,17,33,5.60
2017,12,14,17,34,5.50
2017,12,14,17,35,5.50
2017,12,14,17,36,5.50
2017,12,14,17,37,5.50
2017,12,14,17,38,5.40
2017,12,14,17,39,5.40
2017,12,14,17,40,5.40
2017,12,14,17,41,5.40
2017,12,14,17,42,5.30
2017,12,14,17,43,5.30
2017,12,14,17,44,5.30
2017,12,14,17,45,5.30
2017,12,14,17,46,5.30
2017,12,14,17,47,5.30
2017,12,14,17,48,5.30
2017,12,14,17,49,5.20
2017,12,14,17,50,5.20
2017,12,14,17,51,5.10
2017,12,14,17,52,5.10
2017,12,14,17,53,5.10
2017,12,14,17,54,5.10
2017,12,14,17,55,5.10
2017,12,14,17,56,5.10
2017,12,14,17,57,5.10
2017,12,14,17,58,5.10
2017,12,14,17,59,5.10
2017,12,14,18,00,5.10
2017,12,14,18,01,5.10